Погода в Песчаном

Россия / Астраханская область     45°48′26″N   47°19′40″E
темп.,
°C
ветер,
м/с
пор.,
м/с
влажн.,
%
обл.,
%
осадки,
мм/ч
давл.,
гПа
погр.,
м
17 сентября, пт
пт1701:00+19ссв7932100 0.0 1016726
04:00+17св5837100 0.0 1017512
07:00+15св5740100 0.0 1018446
10:00+16св6636100 0.0 1018727
13:00+16св3434100 0.0 1018759
16:00+20св342565 0.0 10171305
19:00+19ссв2328100 0.0 1017111
22:00+18зюз2231100 0.0 101894
18 сентября, сб
сб1801:00+17юз223329 0.0 101758
04:00+17ююв2334100 0.0 1017120
07:00+16вюв2349100 0.0 1018170
10:00+18вюв343899 0.1 1019605
13:00+19юв4436100 0.0 10181151
16:00+21юв443719 0.0 10181378
19:00+17юв47485 0.0 1018299
22:00+16юв4757100 0.0 1019167
19 сентября, вс
вс1901:00+15вюв46601 0.0 1019107
04:00+14в4558100 0.0 101982
07:00+15в4959100 0.0 1019181
10:00+20вюв9104383 0.0 10191257
13:00+22вюв101036100 0.0 10191305
16:00+21вюв91039100 0.0 10181069
19:00+19вюв71148100 0.0 1019694
22:00+18в71256100 0.0 1018553
20 сентября, пн
пн2001:00+18вюв8145863 0.0 1018551
04:00+18вюв8145780 0.0 1017505
07:00+18вюв81455100 0.0 1016480
10:00+21вюв91145100 0.0 1017805
13:00+23вюв8944100 0.0 1016924
16:00+22вюв6755100 0.0 1015897
19:00+20юв577416 0.0 1016531
22:00+19вюв3583100 0.0 1016149
21 сентября, вт
вт2101:00+18вюв468712 0.0 1016133
04:00+17вюв347994 0.0 101559
07:00+17в3378100 0.0 101558
10:00+22в3458100 0.0 1015341
13:00+26юв5541100 0.0 10151016
16:00+25юв664894 0.0 1014932
19:00+21юв586985 0.0 1015348
22:00+19вюв36785 0.0 1015174